Flag for Canada Weather past 2 weeks in Resolute Bay, Nunavut Territory, Canada

Now
28 °F

Light snow. Mostly cloudy.


Feels Like: 15 °F
Forecast: 26 / 32 °F
Wind: 20 mph from Northeast

Location: Resolute

Current Time: Sep 19, 2014 at 4:59:20 AM

Latest Report: Sep 19, 2014 at 4:00 AM


Visibility: 10 mi

Pressure: 29.67 "Hg

Humidity: 93%

Dew point: 27 °F

Location of Resolute BayLocation

Historic Weather in Resolute Bay — Graph

°F

Resolute Bay temperature yesterday

Maximum temperature yesterday: 28 °F (at 2:00 PM)
Minimum temperature yesterday: 21 °F (at 7:00 AM)
Average temperature yesterday: 25 °F

Past Weeks' High & Low Weather Summary

 TemperatureHumidityPressure
High43 °F (Sep 5, 12:00 PM)100% (Sep 4, 9:00 AM)30.02 "Hg (Sep 4, 9:00 AM)
Low19 °F (Sep 12, 11:00 PM)70% (Sep 7, 5:00 PM)29.30 "Hg (Sep 12, 2:00 PM)
Average28 °F90%29.76 "Hg
* Reported Sep 4 4:00 AM — Sep 19 4:00 AM, Resolute Bay, Weather by CustomWeather, © 2014

Note: Actual official high and low records may vary slightly from our data, if they occured in-between our weather recording intervals... More about our weather records

Advertising

Resolute Bay weather history for previous 24 hours

 ConditionsComfort  
Time TempWeatherWind HumidityBarometerVisibility
4:00 AM
Sep 19
28 °FLight snow. Mostly cloudy.20 mph93%29.67 "Hg10 mi
3:00 AM28 °FMostly cloudy.22 mph93%29.67 "Hg15 mi
2:00 AM28 °FMostly cloudy.24 mph93%29.67 "Hg15 mi
1:00 AM28 °FLight snow. Mostly cloudy.24 mph86%29.69 "Hg15 mi
12:00 AM27 °FLight snow. Overcast.23 mph93%29.70 "Hg15 mi
11:00 PM
Sep 18
27 °FLight snow. Overcast.23 mph93%29.72 "Hg15 mi
10:00 PM27 °FLight snow. Mostly cloudy.23 mph93%29.74 "Hg15 mi
9:00 PM27 °FOvercast.23 mph86%29.75 "Hg15 mi
8:00 PM25 °FPartly cloudy.20 mph93%29.77 "Hg15 mi
7:00 PM27 °FPartly sunny.20 mph93%29.78 "Hg15 mi
6:00 PM27 °FPartly sunny.21 mph93%29.79 "Hg15 mi
5:00 PM28 °FLow clouds.18 mph86%29.81 "Hg15 mi
4:00 PM28 °FPartly sunny.16 mph86%29.83 "Hg15 mi
3:00 PM28 °FPartly sunny.16 mph86%29.83 "Hg15 mi
2:00 PM28 °FPartly sunny.12 mph86%29.85 "Hg15 mi
1:00 PM27 °FPartly sunny.15 mph93%29.85 "Hg15 mi
12:00 PM25 °FPartly sunny.9 mph86%29.87 "Hg15 mi
11:00 AM23 °FPassing clouds.12 mph86%29.87 "Hg15 mi
10:00 AM21 °FPartly sunny.6 mph93%29.88 "Hg15 mi
9:00 AM23 °FPartly sunny.7 mph86%29.90 "Hg15 mi
8:00 AM21 °FPartly sunny.6 mph86%29.91 "Hg15 mi
7:00 AM21 °FPartly sunny.2 mph86%29.92 "Hg15 mi
6:00 AM25 °FPassing clouds.3 mph80%29.91 "Hg15 mi
5:00 AM25 °FPassing clouds.5 mph80%29.91 "Hg15 mi
4:00 AM25 °FPassing clouds.6 mph80%29.92 "Hg15 mi
Weather by CustomWeather, © 2014

See weather overviewHow to use our weather pages